| time (UTC) | temp F | wind direction | speed knots | gust knots | rain 1hr in | rain 24hr in | rain mn in | humidity % | barometer mb |
| 20260507115109 | 69 | 253 | 2.6 | 7.8 | 0.00 | 0.00 | 0.00 | 61 | 1009.7 |
| 20260507114556 | 69 | 249 | 2.6 | 9.6 | 0.00 | 0.00 | 0.00 | 62 | 1009.6 |
| 20260507114533 | 68 | 249 | 0.9 | 9.6 | 0.00 | 0.00 | 0.00 | 63 | 1009.2 |
| 20260507114044 | 69 | 255 | 2.6 | 9.6 | 0.00 | 0.00 | 0.00 | 63 | 1009.6 |
| 20260507113541 | 69 | 302 | 1.7 | 8.7 | 0.00 | 0.00 | 0.00 | 63 | 1009.6 |
| 20260507113010 | 68 | 227 | 0.9 | 7.8 | 0.00 | 0.00 | 0.00 | 65 | 1009.1 |
| 20260507112519 | 68 | 202 | 1.7 | 7.0 | 0.00 | 0.00 | 0.00 | 66 | 1009.6 |
| 20260507112017 | 68 | 224 | 2.6 | 7.8 | 0.00 | 0.00 | 0.00 | 65 | 1009.6 |
| 20260507111550 | 68 | 242 | 0.9 | 7.8 | 0.00 | 0.00 | 0.00 | 66 | 1009.2 |
| 20260507111513 | 68 | 200 | 3.5 | 9.6 | 0.00 | 0.00 | 0.00 | 65 | 1009.6 |
| 20260507111019 | 68 | 111 | 3.5 | 9.6 | 0.00 | 0.00 | 0.00 | 66 | 1009.6 |
| 20260507110026 | 67 | 248 | 3.5 | 7.8 | 0.00 | 0.00 | 0.00 | 67 | 1009.1 |
| 20260507105948 | 68 | 215 | 5.2 | 7.8 | 0.00 | 0.00 | 0.00 | 67 | 1009.6 |
| 20260507105436 | 68 | 238 | 4.3 | 8.7 | 0.00 | 0.00 | 0.00 | 67 | 1009.5 |
| 20260507104926 | 68 | 216 | 3.5 | 7.0 | 0.00 | 0.00 | 0.00 | 67 | 1009.6 |
| 20260507103911 | 67 | 227 | 4.3 | 7.0 | 0.00 | 0.00 | 0.00 | 67 | 1009.6 |
| 20260507103408 | 67 | 222 | 3.5 | 9.6 | 0.00 | 0.00 | 0.00 | 67 | 1009.6 |
| 20260507103052 | 67 | 194 | 4.3 | 9.6 | 0.00 | 0.00 | 0.00 | 66 | 1009.1 |
| 20260507102910 | 68 | 141 | 2.6 | 7.8 | 0.00 | 0.00 | 0.00 | 66 | 1009.5 |
| 20260507102401 | 68 | 242 | 0.9 | 7.0 | 0.00 | 0.00 | 0.00 | 66 | 1009.5 |
| 20260507101858 | 68 | 250 | 1.7 | 7.0 | 0.00 | 0.00 | 0.00 | 66 | 1009.5 |
| 20260507101527 | 67 | 299 | 0.0 | 7.8 | 0.00 | 0.00 | 0.00 | 67 | 1009.0 |
| 20260507101345 | 68 | 227 | 1.7 | 7.8 | 0.00 | 0.00 | 0.00 | 66 | 1009.4 |
| 20260507100842 | 67 | 288 | 1.7 | 7.8 | 0.00 | 0.00 | 0.00 | 67 | 1009.4 |
| 20260507100342 | 67 | 227 | 3.5 | 10.4 | 0.00 | 0.00 | 0.00 | 67 | 1009.4 |
| 20260507100010 | 67 | 227 | 2.6 | 10.4 | 0.00 | 0.00 | 0.00 | 66 | 1008.9 |
| 20260507095322 | 68 | 226 | 2.6 | 7.0 | 0.00 | 0.00 | 0.00 | 66 | 1009.4 |
| 20260507094546 | 67 | 246 | 2.6 | 6.1 | 0.00 | 0.00 | 0.00 | 66 | 1008.9 |
| 20260507094300 | 67 | 171 | 3.5 | 9.6 | 0.00 | 0.00 | 0.00 | 68 | 1009.3 |
| 20260507093759 | 67 | 234 | 2.6 | 9.6 | 0.00 | 0.00 | 0.00 | 68 | 1009.3 |
| 20260507093248 | 66 | 298 | 2.6 | 7.0 | 0.00 | 0.00 | 0.00 | 70 | 1009.3 |
| 20260507093017 | 66 | 224 | 0.9 | 7.0 | 0.00 | 0.00 | 0.00 | 70 | 1008.8 |
| 20260507092737 | 66 | 244 | 2.6 | 7.0 | 0.00 | 0.00 | 0.00 | 70 | 1009.3 |
| 20260507092228 | 67 | 255 | 3.5 | 9.6 | 0.00 | 0.00 | 0.00 | 69 | 1009.3 |
| 20260507091726 | 67 | 242 | 3.5 | 9.6 | 0.00 | 0.00 | 0.00 | 70 | 1009.1 |
| 20260507091505 | 66 | 247 | 5.2 | 9.6 | 0.00 | 0.00 | 0.00 | 69 | 1008.8 |
| 20260507091222 | 67 | 209 | 2.6 | 9.6 | 0.00 | 0.00 | 0.00 | 69 | 1009.1 |
| 20260507090724 | 67 | 217 | 2.6 | 7.8 | 0.00 | 0.00 | 0.00 | 69 | 1009.0 |
| 20260507090158 | 66 | 269 | 3.5 | 7.8 | 0.00 | 0.00 | 0.00 | 71 | 1009.0 |
| 20260507090033 | 66 | 244 | 3.5 | 7.0 | 0.00 | 0.00 | 0.00 | 71 | 1008.6 |
| 20260507085643 | 66 | 192 | 3.5 | 9.6 | 0.00 | 0.00 | 0.00 | 71 | 1008.9 |
| 20260507085134 | 66 | 235 | 4.3 | 9.6 | 0.00 | 0.00 | 0.00 | 71 | 1008.9 |
| 20260507084621 | 65 | 266 | 3.5 | 8.7 | 0.00 | 0.00 | 0.00 | 73 | 1008.8 |
| 20260507084558 | 65 | 266 | 2.6 | 8.7 | 0.00 | 0.00 | 0.00 | 71 | 1008.4 |
| 20260507084109 | 65 | 242 | 3.5 | 8.7 | 0.00 | 0.00 | 0.00 | 73 | 1008.8 |
| 20260507083557 | 65 | 215 | 4.3 | 7.8 | 0.00 | 0.00 | 0.00 | 73 | 1008.7 |
| 20260507083045 | 65 | 205 | 3.5 | 7.0 | 0.00 | 0.00 | 0.00 | 74 | 1008.7 |
| 20260507083026 | 64 | 203 | 4.3 | 7.0 | 0.00 | 0.00 | 0.00 | 74 | 1008.3 |
| 20260507082542 | 64 | 286 | 3.5 | 8.7 | 0.00 | 0.00 | 0.00 | 76 | 1008.7 |
| 20260507082029 | 64 | 242 | 3.5 | 8.7 | 0.00 | 0.00 | 0.00 | 75 | 1008.7 |
| 20260507081602 | 64 | 248 | 4.3 | 7.8 | 0.00 | 0.00 | 0.00 | 75 | 1008.4 |
| 20260507081518 | 64 | 235 | 3.5 | 8.7 | 0.00 | 0.00 | 0.00 | 75 | 1008.7 |
| 20260507081006 | 64 | 242 | 4.3 | 9.6 | 0.00 | 0.00 | 0.00 | 75 | 1008.7 |
| 20260507080508 | 64 | 256 | 3.5 | 9.6 | 0.00 | 0.00 | 0.00 | 75 | 1008.7 |
| 20260507080033 | 64 | 241 | 3.5 | 9.6 | 0.00 | 0.00 | 0.00 | 75 | 1008.2 |
| 20260507075956 | 64 | 254 | 3.5 | 9.6 | 0.00 | 0.00 | 0.00 | 76 | 1008.6 |
| 20260507075445 | 64 | 268 | 4.3 | 10.4 | 0.00 | 0.00 | 0.00 | 76 | 1008.6 |
| 20260507074932 | 63 | 203 | 4.3 | 10.4 | 0.00 | 0.00 | 0.00 | 78 | 1008.6 |
| 20260507074610 | 62 | 234 | 4.3 | 10.4 | 0.00 | 0.00 | 0.00 | 78 | 1008.2 |
| 20260507074420 | 63 | 266 | 4.3 | 9.6 | 0.00 | 0.00 | 0.00 | 79 | 1008.6 |
| 20260507073909 | 62 | 246 | 5.2 | 10.4 | 0.00 | 0.00 | 0.00 | 79 | 1008.5 |
| 20260507073023 | 62 | 277 | 4.3 | 10.4 | 0.00 | 0.00 | 0.00 | 79 | 1008.1 |
| 20260507072332 | 62 | 291 | 4.3 | 12.2 | 0.00 | 0.00 | 0.00 | 80 | 1008.4 |
| 20260507071818 | 62 | 225 | 4.3 | 12.2 | 0.00 | 0.00 | 0.00 | 80 | 1008.3 |
| 20260507071547 | 62 | 199 | 3.5 | 9.6 | 0.00 | 0.00 | 0.00 | 81 | 1007.9 |
| 20260507071305 | 62 | 240 | 3.5 | 7.8 | 0.00 | 0.00 | 0.00 | 81 | 1008.2 |
| 20260507070754 | 62 | 236 | 3.5 | 9.6 | 0.00 | 0.00 | 0.00 | 82 | 1008.2 |
| 20260507070012 | 61 | 248 | 4.3 | 8.7 | 0.00 | 0.00 | 0.00 | 81 | 1007.9 |
| 20260507065728 | 62 | 218 | 2.6 | 8.7 | 0.00 | 0.00 | 0.00 | 82 | 1008.1 |
| 20260507064531 | 60 | 244 | 4.3 | 7.0 | 0.00 | 0.00 | 0.00 | 83 | 1007.6 |
| 20260507064144 | 60 | 217 | 4.3 | 9.6 | 0.00 | 0.00 | 0.00 | 83 | 1008.0 |
| 20260507063630 | 60 | 237 | 4.3 | 9.6 | 0.00 | 0.00 | 0.00 | 83 | 1008.0 |
| 20260507063118 | 60 | 200 | 3.5 | 9.6 | 0.00 | 0.00 | 0.00 | 83 | 1007.9 |
| 20260507063051 | 60 | 191 | 5.2 | 9.6 | 0.00 | 0.00 | 0.00 | 83 | 1007.6 |
| 20260507062607 | 60 | 190 | 3.5 | 7.8 | 0.00 | 0.00 | 0.00 | 84 | 1007.9 |
| 20260507062054 | 60 | 214 | 3.5 | 8.7 | 0.00 | 0.00 | 0.00 | 84 | 1007.9 |
| 20260507061542 | 60 | 190 | 2.6 | 8.7 | 0.00 | 0.00 | 0.00 | 84 | 1007.9 |
| 20260507061515 | 59 | 186 | 1.7 | 8.7 | 0.00 | 0.00 | 0.00 | 84 | 1007.5 |
| 20260507061039 | 60 | 258 | 2.6 | 7.8 | 0.00 | 0.00 | 0.00 | 84 | 1007.9 |
| 20260507060529 | 60 | 248 | 2.6 | 7.0 | 0.00 | 0.00 | 0.00 | 85 | 1007.8 |
| 20260507060043 | 59 | 257 | 2.6 | 7.0 | 0.00 | 0.00 | 0.00 | 85 | 1007.4 |
| 20260507060007 | 60 | 230 | 1.7 | 7.0 | 0.00 | 0.00 | 0.00 | 85 | 1007.8 |
| 20260507055452 | 60 | 232 | 1.7 | 6.1 | 0.00 | 0.00 | 0.00 | 86 | 1007.8 |
| 20260507054938 | 60 | 231 | 2.6 | 6.1 | 0.00 | 0.00 | 0.00 | 86 | 1007.7 |
| 20260507054503 | 59 | 202 | 2.6 | 6.1 | 0.00 | 0.00 | 0.00 | 87 | 1007.2 |
| 20260507053911 | 59 | 248 | 1.7 | 6.1 | 0.00 | 0.00 | 0.00 | 88 | 1007.5 |
| 20260507053025 | 58 | 239 | 0.0 | 2.6 | 0.00 | 0.00 | 0.00 | 90 | 1006.9 |
| 20260507052845 | 58 | 239 | 0.9 | 2.6 | 0.00 | 0.00 | 0.00 | 90 | 1007.3 |
| 20260507051810 | 57 | 205 | 0.0 | 3.5 | 0.00 | 0.00 | 0.00 | 91 | 1007.2 |
| 20260507051539 | 57 | 226 | 0.0 | 2.6 | 0.00 | 0.00 | 0.00 | 91 | 1006.9 |
| 20260507050743 | 57 | 236 | 0.9 | 3.5 | 0.00 | 0.00 | 0.00 | 91 | 1007.2 |
| 20260507050229 | 57 | 237 | 1.7 | 3.5 | 0.00 | 0.00 | 0.00 | 91 | 1007.2 |
| 20260507050100 | 56 | 237 | 0.0 | 3.5 | 0.00 | 0.00 | 0.00 | 91 | 1006.8 |
| 20260507045713 | 57 | 242 | 0.9 | 3.5 | 0.00 | 0.00 | 0.00 | 92 | 1007.2 |
| 20260507044646 | 57 | 242 | 0.0 | 0.9 | 0.00 | 0.00 | 0.00 | 92 | 1007.1 |
| 20260507044620 | 56 | 242 | 0.0 | 0.9 | 0.00 | 0.00 | 0.00 | 92 | 1006.6 |
| 20260507044133 | 57 | 242 | 0.0 | 2.6 | 0.00 | 0.00 | 0.00 | 92 | 1006.9 |
| 20260507043619 | 57 | 240 | 0.0 | 3.5 | 0.00 | 0.00 | 0.00 | 92 | 1006.9 |
| 20260507043041 | 56 | 244 | 0.0 | 3.5 | 0.00 | 0.00 | 0.00 | 92 | 1006.4 |
| 20260507042549 | 56 | 243 | 0.9 | 3.5 | 0.00 | 0.00 | 0.00 | 92 | 1006.8 |
| 20260507042036 | 56 | 254 | 0.9 | 2.6 | 0.00 | 0.00 | 0.00 | 92 | 1006.7 |
| 20260507041603 | 56 | 254 | 0.0 | 1.7 | 0.00 | 0.00 | 0.00 | 92 | 1006.2 |
| 20260507041520 | 56 | 254 | 0.0 | 1.7 | 0.00 | 0.00 | 0.00 | 92 | 1006.7 |
| 20260507041006 | 56 | 252 | 0.0 | 2.6 | 0.00 | 0.00 | 0.00 | 92 | 1006.5 |
| 20260507040449 | 56 | 253 | 0.0 | 2.6 | 0.00 | 0.00 | 0.00 | 92 | 1006.4 |
| 20260507040013 | 56 | 305 | 0.0 | 0.0 | 0.00 | 0.00 | 0.00 | 92 | 1005.9 |
| 20260507035935 | 56 | 305 | 0.0 | 0.0 | 0.00 | 0.00 | 0.00 | 92 | 1006.3 |
| 20260507035421 | 56 | 305 | 0.0 | 0.0 | 0.00 | 0.00 | 0.00 | 92 | 1006.3 |
| 20260507034907 | 56 | 305 | 0.0 | 0.9 | 0.00 | 0.00 | 0.00 | 92 | 1006.4 |
| 20260507034533 | 55 | 305 | 0.0 | 0.9 | 0.00 | 0.00 | 0.00 | 92 | 1005.9 |
| 20260507034352 | 56 | 305 | 0.0 | 2.6 | 0.00 | 0.00 | 0.00 | 92 | 1006.3 |
| 20260507033842 | 56 | 245 | 0.0 | 2.6 | 0.00 | 0.00 | 0.00 | 92 | 1006.2 |
| 20260507033106 | 55 | 242 | 0.0 | 1.7 | 0.00 | 0.00 | 0.00 | 92 | 1005.8 |
| 20260507032306 | 56 | 242 | 0.0 | 2.6 | 0.00 | 0.00 | 0.00 | 92 | 1006.2 |
| 20260507031754 | 55 | 242 | 0.0 | 2.6 | 0.00 | 0.00 | 0.00 | 92 | 1006.1 |
| 20260507031527 | 55 | 248 | 0.0 | 2.6 | 0.00 | 0.00 | 0.00 | 92 | 1005.7 |
| 20260507031245 | 55 | 248 | 0.0 | 2.6 | 0.00 | 0.00 | 0.00 | 92 | 1006.2 |
| 20260507030740 | 55 | 247 | 0.0 | 2.6 | 0.00 | 0.00 | 0.00 | 92 | 1006.1 |
| 20260507030009 | 55 | 246 | 0.0 | 3.5 | 0.00 | 0.00 | 0.00 | 92 | 1005.7 |
| 20260507025729 | 55 | 245 | 0.9 | 3.5 | 0.00 | 0.00 | 0.00 | 93 | 1006.0 |
| 20260507025223 | 55 | 244 | 0.9 | 4.3 | 0.00 | 0.00 | 0.00 | 93 | 1005.9 |
| 20260507024712 | 55 | 257 | 0.0 | 4.3 | 0.00 | 0.00 | 0.00 | 93 | 1005.9 |
| 20260507024546 | 54 | 255 | 0.9 | 3.5 | 0.00 | 0.00 | 0.00 | 92 | 1005.5 |
| 20260507024200 | 54 | 234 | 0.0 | 0.9 | 0.00 | 0.00 | 0.00 | 92 | 1005.8 |
| 20260507023650 | 54 | 234 | 0.0 | 0.0 | 0.00 | 0.00 | 0.00 | 92 | 1005.6 |
| 20260507023145 | 54 | 234 | 0.0 | 0.0 | 0.00 | 0.00 | 0.00 | 92 | 1005.6 |
| 20260507023019 | 54 | 234 | 0.0 | 0.0 | 0.00 | 0.00 | 0.00 | 92 | 1005.1 |
| 20260507022651 | 54 | 234 | 0.0 | 0.0 | 0.00 | 0.00 | 0.00 | 92 | 1005.6 |
| 20260507022137 | 55 | 234 | 0.0 | 0.0 | 0.00 | 0.00 | 0.00 | 91 | 1005.5 |
| 20260507021510 | 54 | 234 | 0.0 | 0.0 | 0.00 | 0.00 | 0.00 | 91 | 1005.1 |
| 20260507021129 | 55 | 234 | 0.0 | 0.0 | 0.00 | 0.00 | 0.00 | 91 | 1005.6 |
| 20260507020620 | 55 | 234 | 0.0 | 0.0 | 0.00 | 0.00 | 0.00 | 91 | 1005.6 |
| 20260507020120 | 55 | 234 | 0.0 | 0.0 | 0.00 | 0.00 | 0.00 | 91 | 1005.7 |
| 20260507020057 | 54 | 234 | 0.0 | 0.0 | 0.00 | 0.00 | 0.00 | 91 | 1005.2 |
| 20260507015609 | 55 | 234 | 0.0 | 0.9 | 0.00 | 0.00 | 0.00 | 91 | 1005.6 |
| 20260507015100 | 55 | 234 | 0.0 | 0.0 | 0.00 | 0.00 | 0.00 | 90 | 1005.6 |
| 20260507014557 | 55 | 234 | 0.0 | 0.0 | 0.00 | 0.00 | 0.00 | 90 | 1005.6 |
| 20260507014544 | 54 | 234 | 0.0 | 0.0 | 0.00 | 0.00 | 0.00 | 90 | 1005.1 |
| 20260507013544 | 55 | 234 | 0.0 | 0.0 | 0.00 | 0.00 | 0.00 | 90 | 1005.5 |
| 20260507013035 | 55 | 234 | 0.0 | 0.0 | 0.00 | 0.00 | 0.00 | 90 | 1005.5 |
| 20260507013010 | 55 | 234 | 0.0 | 0.0 | 0.00 | 0.00 | 0.00 | 90 | 1005.0 |
| 20260507012523 | 55 | 234 | 0.0 | 0.0 | 0.00 | 0.00 | 0.00 | 89 | 1005.4 |
| 20260507012017 | 55 | 234 | 0.0 | 0.0 | 0.00 | 0.00 | 0.00 | 89 | 1005.4 |
| 20260507011546 | 55 | 234 | 0.0 | 0.0 | 0.00 | 0.00 | 0.00 | 88 | 1004.9 |
| 20260507011508 | 56 | 234 | 0.0 | 0.0 | 0.00 | 0.00 | 0.00 | 88 | 1005.3 |
| 20260507010958 | 56 | 234 | 0.0 | 0.0 | 0.00 | 0.00 | 0.00 | 88 | 1005.3 |
| 20260507010012 | 56 | 234 | 0.0 | 0.0 | 0.00 | 0.00 | 0.00 | 87 | 1004.8 |
| 20260507005936 | 56 | 234 | 0.0 | 0.0 | 0.00 | 0.00 | 0.00 | 87 | 1005.3 |
| 20260507005422 | 57 | 234 | 0.0 | 0.0 | 0.00 | 0.00 | 0.00 | 86 | 1005.3 |
| 20260507004923 | 57 | 234 | 0.0 | 0.0 | 0.00 | 0.00 | 0.00 | 86 | 1005.3 |
| 20260507004553 | 57 | 234 | 0.0 | 0.0 | 0.00 | 0.00 | 0.00 | 86 | 1004.9 |
| 20260507004413 | 57 | 234 | 0.0 | 0.0 | 0.00 | 0.00 | 0.00 | 86 | 1005.4 |
| 20260507003901 | 58 | 234 | 0.0 | 0.0 | 0.00 | 0.00 | 0.00 | 85 | 1005.4 |
| 20260507003351 | 58 | 234 | 0.0 | 0.9 | 0.00 | 0.00 | 0.00 | 85 | 1005.4 |
| 20260507003016 | 57 | 234 | 0.0 | 0.9 | 0.00 | 0.00 | 0.00 | 85 | 1004.9 |
| 20260507002835 | 58 | 234 | 0.0 | 0.9 | 0.00 | 0.00 | 0.00 | 85 | 1005.4 |
| 20260507002322 | 58 | 234 | 0.0 | 2.6 | 0.00 | 0.00 | 0.00 | 84 | 1005.4 |
| 20260507001543 | 58 | 234 | 0.0 | 0.9 | 0.00 | 0.00 | 0.00 | 84 | 1004.9 |
| 20260507001258 | 58 | 234 | 0.0 | 0.9 | 0.00 | 0.00 | 0.00 | 83 | 1005.4 |
| 20260507000748 | 59 | 234 | 0.0 | 0.9 | 0.00 | 0.00 | 0.00 | 83 | 1005.5 |
| 20260507000236 | 59 | 234 | 0.0 | 1.7 | 0.00 | 0.00 | 0.00 | 83 | 1005.3 |
| 20260507000009 | 58 | 234 | 0.0 | 1.7 | 0.00 | 0.00 | 0.00 | 82 | 1004.9 |
| 20260506235726 | 59 | 234 | 0.0 | 1.7 | 0.00 | 0.00 | 0.00 | 82 | 1005.4 |
| 20260506235224 | 59 | 234 | 0.9 | 2.6 | 0.00 | 0.00 | 0.00 | 82 | 1005.4 |
| 20260506234715 | 59 | 234 | 0.9 | 2.6 | 0.00 | 0.00 | 0.00 | 81 | 1005.4 |
| 20260506234547 | 59 | 243 | 0.0 | 2.6 | 0.00 | 0.00 | 0.00 | 81 | 1004.9 |
| 20260506234201 | 59 | 243 | 0.9 | 2.6 | 0.00 | 0.00 | 0.00 | 80 | 1005.5 |
| 20260506233648 | 60 | 252 | 0.9 | 2.6 | 0.00 | 0.00 | 0.00 | 79 | 1005.4 |
| 20260506233134 | 60 | 263 | 0.0 | 0.0 | 0.00 | 0.00 | 0.00 | 77 | 1005.4 |
| 20260506233129 | 60 | 263 | 0.0 | 0.0 | 0.00 | 0.00 | 0.00 | 77 | 1004.9 |
| 20260506232619 | 61 | 263 | 0.0 | 0.9 | 0.00 | 0.00 | 0.00 | 76 | 1005.5 |
| 20260506232104 | 61 | 263 | 0.0 | 0.9 | 0.00 | 0.00 | 0.00 | 74 | 1005.5 |
| 20260506231550 | 62 | 263 | 0.0 | 0.9 | 0.00 | 0.00 | 0.00 | 73 | 1005.5 |
| 20260506231524 | 62 | 263 | 0.0 | 0.9 | 0.00 | 0.00 | 0.00 | 72 | 1005.1 |
| 20260506231037 | 62 | 263 | 0.0 | 0.9 | 0.00 | 0.00 | 0.00 | 71 | 1005.5 |
| 20260506230527 | 63 | 263 | 0.0 | 1.7 | 0.00 | 0.00 | 0.00 | 70 | 1005.5 |
| 20260506230048 | 63 | 263 | 0.0 | 1.7 | 0.00 | 0.00 | 0.00 | 69 | 1005.0 |
| 20260506225451 | 64 | 263 | 0.0 | 2.6 | 0.00 | 0.00 | 0.00 | 68 | 1005.4 |
| 20260506224936 | 65 | 298 | 0.0 | 3.5 | 0.00 | 0.00 | 0.00 | 67 | 1005.4 |
| 20260506224502 | 65 | 298 | 0.0 | 3.5 | 0.00 | 0.00 | 0.00 | 66 | 1005.0 |
| 20260506224432 | 65 | 298 | 0.9 | 3.5 | 0.00 | 0.00 | 0.00 | 66 | 1005.5 |
| 20260506223928 | 65 | 229 | 0.9 | 2.6 | 0.00 | 0.00 | 0.00 | 65 | 1005.5 |
| 20260506223429 | 65 | 229 | 0.9 | 5.2 | 0.00 | 0.00 | 0.00 | 65 | 1005.4 |
| 20260506223014 | 65 | 202 | 0.0 | 5.2 | 0.00 | 0.00 | 0.00 | 65 | 1004.9 |
| 20260506222928 | 65 | 202 | 0.9 | 5.2 | 0.00 | 0.00 | 0.00 | 65 | 1005.4 |
| 20260506222441 | 65 | 159 | 0.0 | 3.5 | 0.00 | 0.00 | 0.00 | 65 | 1005.3 |
| 20260506221927 | 65 | 244 | 0.0 | 1.7 | 0.00 | 0.00 | 0.00 | 64 | 1005.3 |
| 20260506221540 | 65 | 244 | 0.0 | 1.7 | 0.00 | 0.00 | 0.00 | 63 | 1004.8 |
| 20260506221401 | 66 | 244 | 0.9 | 1.7 | 0.00 | 0.00 | 0.00 | 63 | 1005.2 |
| 20260506220020 | 66 | 246 | 0.0 | 4.3 | 0.00 | 0.00 | 0.00 | 62 | 1004.7 |
| 20260506215835 | 67 | 246 | 0.9 | 4.3 | 0.00 | 0.00 | 0.00 | 62 | 1005.2 |
| 20260506215325 | 67 | 246 | 1.7 | 4.3 | 0.00 | 0.00 | 0.00 | 61 | 1005.2 |
| 20260506214812 | 67 | 221 | 1.7 | 5.2 | 0.00 | 0.00 | 0.00 | 61 | 1005.1 |
| 20260506214541 | 67 | 216 | 0.9 | 5.2 | 0.00 | 0.00 | 0.00 | 61 | 1004.6 |
| 20260506213750 | 67 | 215 | 1.7 | 4.3 | 0.00 | 0.00 | 0.00 | 60 | 1005.1 |
| 20260506213233 | 68 | 225 | 1.7 | 4.3 | 0.00 | 0.00 | 0.00 | 60 | 1005.0 |
| 20260506213003 | 67 | 246 | 0.9 | 4.3 | 0.00 | 0.00 | 0.00 | 59 | 1004.6 |
| 20260506212206 | 68 | 197 | 2.6 | 7.8 | 0.00 | 0.00 | 0.00 | 59 | 1005.0 |
| 20260506211656 | 68 | 204 | 2.6 | 7.8 | 0.00 | 0.00 | 0.00 | 59 | 1005.0 |
| 20260506211542 | 68 | 201 | 1.7 | 7.8 | 0.00 | 0.00 | 0.00 | 59 | 1004.5 |
| 20260506210007 | 68 | 146 | 0.0 | 7.0 | 0.00 | 0.00 | 0.00 | 58 | 1004.5 |
| 20260506205100 | 69 | 177 | 4.3 | 8.7 | 0.00 | 0.00 | 0.00 | 58 | 1004.9 |
| 20260506204545 | 69 | 199 | 4.3 | 8.7 | 0.00 | 0.00 | 0.00 | 58 | 1004.8 |
| 20260506204524 | 68 | 245 | 4.3 | 8.7 | 0.00 | 0.00 | 0.00 | 58 | 1004.3 |
| 20260506204030 | 69 | 180 | 3.5 | 8.7 | 0.00 | 0.00 | 0.00 | 58 | 1004.8 |
| 20260506203515 | 68 | 136 | 4.3 | 13.0 | 0.00 | 0.00 | 0.00 | 58 | 1004.9 |
| 20260506203043 | 68 | 186 | 3.5 | 12.2 | 0.00 | 0.00 | 0.00 | 59 | 1004.3 |
| 20260506202448 | 68 | 130 | 2.6 | 8.7 | 0.00 | 0.00 | 0.00 | 59 | 1004.6 |
| 20260506201939 | 68 | 167 | 0.9 | 4.3 | 0.00 | 0.00 | 0.00 | 59 | 1004.6 |
| 20260506201517 | 68 | 130 | 0.0 | 5.2 | 0.00 | 0.00 | 0.00 | 58 | 1004.2 |
| 20260506201437 | 68 | 130 | 1.7 | 7.0 | 0.00 | 0.00 | 0.00 | 59 | 1004.5 |
| 20260506200407 | 69 | 164 | 0.9 | 3.5 | 0.00 | 0.00 | 0.00 | 58 | 1004.4 |
| 20260506200033 | 68 | 165 | 0.9 | 3.5 | 0.00 | 0.00 | 0.00 | 58 | 1004.1 |
| 20260506195850 | 69 | 163 | 0.9 | 3.5 | 0.00 | 0.00 | 0.00 | 58 | 1004.5 |
| 20260506195345 | 69 | 165 | 0.9 | 3.5 | 0.00 | 0.00 | 0.00 | 58 | 1004.4 |
| 20260506194512 | 69 | 166 | 0.9 | 3.5 | 0.00 | 0.00 | 0.00 | 57 | 1004.0 |
| 20260506194327 | 69 | 191 | 1.7 | 6.1 | 0.00 | 0.00 | 0.00 | 57 | 1004.4 |
| 20260506193325 | 69 | 172 | 1.7 | 6.1 | 0.00 | 0.00 | 0.00 | 57 | 1004.3 |
| 20260506193033 | 69 | 144 | 2.6 | 6.1 | 0.00 | 0.00 | 0.00 | 57 | 1004.0 |
| 20260506192822 | 69 | 164 | 1.7 | 6.1 | 0.00 | 0.00 | 0.00 | 57 | 1004.4 |
| 20260506192323 | 69 | 192 | 1.7 | 6.1 | 0.00 | 0.00 | 0.00 | 57 | 1004.3 |
| 20260506191809 | 69 | 138 | 0.9 | 5.2 | 0.00 | 0.00 | 0.00 | 57 | 1004.3 |
| 20260506191641 | 69 | 138 | 0.9 | 4.3 | 0.00 | 0.00 | 0.00 | 57 | 1004.0 |
| 20260506191309 | 69 | 168 | 0.9 | 5.2 | 0.00 | 0.00 | 0.00 | 57 | 1004.3 |
| 20260506190742 | 69 | 190 | 0.9 | 4.3 | 0.00 | 0.00 | 0.00 | 56 | 1004.3 |
| 20260506190225 | 70 | 196 | 0.9 | 4.3 | 0.00 | 0.00 | 0.00 | 56 | 1004.2 |
| 20260506185713 | 70 | 188 | 0.9 | 4.3 | 0.00 | 0.00 | 0.00 | 56 | 1004.2 |
| 20260506185201 | 70 | 192 | 0.9 | 4.3 | 0.00 | 0.00 | 0.00 | 55 | 1004.1 |
| 20260506184649 | 70 | 132 | 0.0 | 2.6 | 0.00 | 0.00 | 0.00 | 54 | 1004.1 |
| 20260506184521 | 70 | 132 | 0.0 | 3.5 | 0.00 | 0.00 | 0.00 | 54 | 1003.7 |
| 20260506184134 | 71 | 132 | 0.0 | 3.5 | 0.00 | 0.00 | 0.00 | 53 | 1004.0 |
| 20260506183624 | 71 | 161 | 0.9 | 4.3 | 0.00 | 0.00 | 0.00 | 52 | 1003.9 |
| 20260506183043 | 71 | 158 | 0.9 | 4.3 | 0.00 | 0.00 | 0.00 | 52 | 1003.5 |
| 20260506182559 | 71 | 145 | 1.7 | 7.8 | 0.00 | 0.00 | 0.00 | 51 | 1003.8 |
| 20260506181526 | 72 | 165 | 2.6 | 5.2 | 0.00 | 0.00 | 0.00 | 51 | 1003.9 |
| 20260506181502 | 71 | 165 | 1.7 | 5.2 | 0.00 | 0.00 | 0.00 | 51 | 1003.5 |
| 20260506181012 | 72 | 200 | 3.5 | 9.6 | 0.00 | 0.00 | 0.00 | 50 | 1003.9 |
| 20260506180455 | 72 | 170 | 4.3 | 9.6 | 0.00 | 0.00 | 0.00 | 50 | 1003.9 |
| 20260506180023 | 72 | 196 | 2.6 | 8.7 | 0.00 | 0.00 | 0.00 | 50 | 1003.4 |
| 20260506175945 | 72 | 140 | 4.3 | 8.7 | 0.00 | 0.00 | 0.00 | 50 | 1003.9 |
| 20260506175434 | 73 | 165 | 3.5 | 9.6 | 0.00 | 0.00 | 0.00 | 49 | 1003.8 |
| 20260506174920 | 73 | 151 | 3.5 | 9.6 | 0.00 | 0.00 | 0.00 | 50 | 1003.8 |
| 20260506174555 | 72 | 247 | 3.5 | 9.6 | 0.00 | 0.00 | 0.00 | 49 | 1003.4 |
| 20260506174412 | 73 | 219 | 3.5 | 9.6 | 0.00 | 0.00 | 0.00 | 50 | 1003.8 |
| 20260506173358 | 73 | 196 | 3.5 | 8.7 | 0.00 | 0.00 | 0.00 | 50 | 1003.9 |
| 20260506173132 | 73 | 227 | 2.6 | 8.7 | 0.00 | 0.00 | 0.00 | 50 | 1003.5 |
| 20260506172847 | 73 | 225 | 2.6 | 8.7 | 0.00 | 0.00 | 0.00 | 50 | 1004.0 |
| 20260506172332 | 74 | 186 | 3.5 | 8.7 | 0.00 | 0.00 | 0.00 | 50 | 1003.9 |
| 20260506171815 | 74 | 213 | 4.3 | 10.4 | 0.00 | 0.00 | 0.00 | 50 | 1003.8 |
| 20260506171550 | 73 | 176 | 3.5 | 8.7 | 0.00 | 0.00 | 0.00 | 50 | 1003.4 |
| 20260506170751 | 74 | 234 | 3.5 | 8.7 | 0.00 | 0.00 | 0.00 | 50 | 1003.8 |
| 20260506170244 | 74 | 242 | 4.3 | 14.8 | 0.00 | 0.00 | 0.00 | 49 | 1003.8 |
| 20260506170118 | 74 | 207 | 4.3 | 13.9 | 0.00 | 0.00 | 0.00 | 49 | 1003.4 |
| 20260506165226 | 74 | 161 | 4.3 | 10.4 | 0.00 | 0.00 | 0.00 | 50 | 1003.8 |
| 20260506164728 | 74 | 161 | 2.6 | 7.0 | 0.00 | 0.00 | 0.00 | 51 | 1003.9 |
| 20260506164500 | 73 | 187 | 2.6 | 7.0 | 0.00 | 0.00 | 0.00 | 51 | 1003.4 |
| 20260506164217 | 74 | 219 | 2.6 | 7.0 | 0.00 | 0.00 | 0.00 | 52 | 1003.9 |
| 20260506163705 | 74 | 240 | 2.6 | 7.0 | 0.00 | 0.00 | 0.00 | 52 | 1003.9 |
| 20260506163153 | 73 | 233 | 2.6 | 7.0 | 0.00 | 0.00 | 0.00 | 52 | 1003.9 |
| 20260506163052 | 73 | 246 | 1.7 | 6.1 | 0.00 | 0.00 | 0.00 | 52 | 1003.5 |
| 20260506162646 | 73 | 217 | 2.6 | 7.0 | 0.00 | 0.00 | 0.00 | 51 | 1004.0 |
| 20260506162156 | 73 | 225 | 3.5 | 7.0 | 0.00 | 0.00 | 0.00 | 51 | 1004.0 |
| 20260506161648 | 73 | 245 | 3.5 | 7.0 | 0.00 | 0.00 | 0.00 | 51 | 1004.1 |
| 20260506161510 | 73 | 240 | 2.6 | 7.0 | 0.00 | 0.00 | 0.00 | 51 | 1003.7 |
| 20260506161139 | 73 | 238 | 2.6 | 7.0 | 0.00 | 0.00 | 0.00 | 51 | 1004.2 |
| 20260506160633 | 74 | 218 | 2.6 | 6.1 | 0.00 | 0.00 | 0.00 | 50 | 1004.2 |
| 20260506160122 | 74 | 278 | 3.5 | 8.7 | 0.00 | 0.00 | 0.00 | 50 | 1004.3 |
| 20260506160045 | 73 | 278 | 3.5 | 8.7 | 0.00 | 0.00 | 0.00 | 50 | 1003.9 |
| 20260506155601 | 74 | 225 | 4.3 | 10.4 | 0.00 | 0.00 | 0.00 | 49 | 1004.3 |
| 20260506155048 | 74 | 234 | 4.3 | 10.4 | 0.00 | 0.00 | 0.00 | 49 | 1004.4 |
| 20260506154533 | 74 | 252 | 2.6 | 10.4 | 0.00 | 0.00 | 0.00 | 50 | 1004.5 |
| 20260506154026 | 74 | 245 | 2.6 | 5.2 | 0.00 | 0.00 | 0.00 | 50 | 1004.5 |
| 20260506153518 | 74 | 193 | 3.5 | 9.6 | 0.00 | 0.00 | 0.00 | 50 | 1004.6 |
| 20260506153051 | 74 | 222 | 3.5 | 9.6 | 0.00 | 0.00 | 0.00 | 49 | 1004.1 |
| 20260506153004 | 74 | 237 | 4.3 | 9.6 | 0.00 | 0.00 | 0.00 | 49 | 1004.5 |
| 20260506152502 | 74 | 220 | 4.3 | 10.4 | 0.00 | 0.00 | 0.00 | 50 | 1004.6 |
| 20260506151530 | 74 | 189 | 5.2 | 10.4 | 0.00 | 0.00 | 0.00 | 49 | 1004.2 |
| 20260506151448 | 74 | 207 | 5.2 | 9.6 | 0.00 | 0.00 | 0.00 | 49 | 1004.8 |
| 20260506150943 | 74 | 271 | 4.3 | 7.8 | 0.00 | 0.00 | 0.00 | 49 | 1004.9 |
| 20260506150435 | 75 | 238 | 4.3 | 7.8 | 0.00 | 0.00 | 0.00 | 48 | 1004.9 |
| 20260506145920 | 75 | 229 | 5.2 | 8.7 | 0.00 | 0.00 | 0.00 | 49 | 1004.9 |
| 20260506145406 | 75 | 218 | 5.2 | 8.7 | 0.00 | 0.00 | 0.00 | 49 | 1005.0 |
| 20260506144853 | 75 | 241 | 3.5 | 9.6 | 0.00 | 0.00 | 0.00 | 48 | 1004.9 |
| 20260506144523 | 74 | 238 | 3.5 | 7.8 | 0.00 | 0.00 | 0.00 | 49 | 1004.4 |
| 20260506144342 | 75 | 244 | 3.5 | 9.6 | 0.00 | 0.00 | 0.00 | 49 | 1005.0 |
| 20260506143831 | 75 | 232 | 5.2 | 12.2 | 0.00 | 0.00 | 0.00 | 47 | 1004.9 |
| 20260506143104 | 75 | 252 | 7.0 | 12.2 | 0.00 | 0.00 | 0.00 | 47 | 1004.4 |
| 20260506142813 | 75 | 216 | 3.5 | 9.6 | 0.00 | 0.00 | 0.00 | 48 | 1005.1 |
| 20260506142258 | 75 | 238 | 4.3 | 11.3 | 0.00 | 0.00 | 0.00 | 49 | 1005.1 |
| 20260506141750 | 75 | 235 | 4.3 | 11.3 | 0.00 | 0.00 | 0.00 | 48 | 1005.2 |
| 20260506141520 | 74 | 238 | 5.2 | 11.3 | 0.00 | 0.00 | 0.00 | 48 | 1004.7 |
| 20260506141238 | 75 | 244 | 4.3 | 9.6 | 0.00 | 0.00 | 0.00 | 48 | 1005.2 |
| 20260506140212 | 76 | 244 | 7.0 | 13.0 | 0.00 | 0.00 | 0.00 | 46 | 1005.4 |
| 20260506140046 | 75 | 241 | 4.3 | 13.0 | 0.00 | 0.00 | 0.00 | 46 | 1004.8 |
| 20260506135702 | 75 | 225 | 7.0 | 13.9 | 0.00 | 0.00 | 0.00 | 46 | 1005.4 |
| 20260506135146 | 75 | 242 | 7.0 | 13.9 | 0.00 | 0.00 | 0.00 | 45 | 1005.4 |
| 20260506134630 | 75 | 200 | 7.8 | 16.5 | 0.00 | 0.00 | 0.00 | 44 | 1005.3 |
| 20260506134505 | 75 | 197 | 7.8 | 16.5 | 0.00 | 0.00 | 0.00 | 44 | 1004.8 |
| 20260506134120 | 76 | 180 | 7.0 | 16.5 | 0.00 | 0.00 | 0.00 | 45 | 1005.3 |
| 20260506133606 | 76 | 175 | 6.1 | 13.0 | 0.00 | 0.00 | 0.00 | 45 | 1005.3 |
| 20260506133056 | 76 | 241 | 5.2 | 13.0 | 0.00 | 0.00 | 0.00 | 46 | 1005.4 |
| 20260506133033 | 75 | 281 | 7.8 | 13.0 | 0.00 | 0.00 | 0.00 | 45 | 1004.8 |
| 20260506132546 | 76 | 245 | 4.3 | 12.2 | 0.00 | 0.00 | 0.00 | 45 | 1005.4 |
| 20260506132032 | 76 | 217 | 4.3 | 11.3 | 0.00 | 0.00 | 0.00 | 45 | 1005.3 |
| 20260506131600 | 76 | 248 | 4.3 | 11.3 | 0.00 | 0.00 | 0.00 | 45 | 1004.9 |
| 20260506131520 | 76 | 257 | 3.5 | 12.2 | 0.00 | 0.00 | 0.00 | 45 | 1005.5 |
| 20260506131009 | 76 | 218 | 4.3 | 12.2 | 0.00 | 0.00 | 0.00 | 47 | 1005.5 |
| 20260506130457 | 76 | 228 | 5.2 | 12.2 | 0.00 | 0.00 | 0.00 | 47 | 1005.5 |
| 20260506130023 | 75 | 207 | 7.0 | 15.6 | 0.00 | 0.00 | 0.00 | 46 | 1004.9 |
| 20260506125944 | 75 | 205 | 6.1 | 15.6 | 0.00 | 0.00 | 0.00 | 46 | 1005.5 |
| 20260506125428 | 75 | 214 | 6.1 | 15.6 | 0.00 | 0.00 | 0.00 | 45 | 1005.6 |
| 20260506124918 | 75 | 223 | 7.0 | 15.6 | 0.00 | 0.00 | 0.00 | 45 | 1005.7 |
| 20260506124546 | 74 | 184 | 6.1 | 14.8 | 0.00 | 0.00 | 0.00 | 46 | 1005.2 |
| 20260506124404 | 75 | 216 | 7.0 | 15.6 | 0.00 | 0.00 | 0.00 | 46 | 1005.7 |
| 20260506123851 | 76 | 238 | 6.1 | 13.9 | 0.00 | 0.00 | 0.00 | 47 | 1005.7 |
| 20260506123336 | 75 | 188 | 6.1 | 13.9 | 0.00 | 0.00 | 0.00 | 46 | 1005.7 |
| 20260506123002 | 74 | 160 | 4.3 | 13.9 | 0.00 | 0.00 | 0.00 | 47 | 1005.3 |
| 20260506122822 | 75 | 254 | 7.0 | 14.8 | 0.00 | 0.00 | 0.00 | 47 | 1005.9 |
| 20260506122306 | 75 | 223 | 6.1 | 14.8 | 0.00 | 0.00 | 0.00 | 47 | 1005.8 |
| 20260506121754 | 75 | 181 | 6.1 | 13.9 | 0.00 | 0.00 | 0.00 | 50 | 1005.7 |
| 20260506121538 | 74 | 263 | 3.5 | 13.9 | 0.00 | 0.00 | 0.00 | 51 | 1005.3 |
| 20260506121249 | 74 | 206 | 6.1 | 13.9 | 0.00 | 0.00 | 0.00 | 51 | 1005.9 |
| 20260506120733 | 73 | 266 | 7.0 | 13.9 | 0.00 | 0.00 | 0.00 | 50 | 1005.8 |
| 20260506120218 | 74 | 248 | 7.8 | 14.8 | 0.00 | 0.00 | 0.00 | 51 | 1005.9 |
| 20260506120057 | 73 | 255 | 7.8 | 14.8 | 0.00 | 0.00 | 0.00 | 50 | 1005.4 |
| 20260506115702 | 74 | 202 | 7.0 | 14.8 | 0.00 | 0.00 | 0.00 | 50 | 1005.8 |